Temperature
21 20 20 20 19 19 19 18 18 18 18 18 18 17 17 17 16 16 16 16 16 16 16 16 16 16 16 16 16 16 16 16 15 14 14 14 14 14 14 13 13 13 13
20 20 20 19 19 19 18 18 18 18 18 17 17 17 17 17 16 16 16 16 16 16 16 16 16 16 16 16 16 15 15 15 15 14 14 13 13 13 13 13 13 12 12
20 20 20 19 19 19 18 18 18 18 17 17 17 17 16 16 16 16 16 16 15 15 15 15 15 16 15 15 15 15 15 15 15 14 13 13 13 13 12 12 12 12 12
20 20 19 19 18 18 18 18 17 17 17 17 16 16 16 16 15 15 15 15 15 15 15 15 15 15 15 15 15 15 14 14 14 13 13 13 12 12 12 12 12 11 11
20 19 19 19 18 18 18 17 17 17 16 16 16 16 16 15 15 15 15 15 15 14 14 14 14 14 14 14 14 14 14 14 13 13 12 12 12 12 12 11 11 11 11
20 19 19 18 18 18 17 17 17 17 16 16 16 16 16 15 15 15 15 14 14 14 14 14 14 14 14 14 14 13 13 13 13 13 12 12 12 11 11 11 11 11 11
19 19 18 18 18 17 17 16 16 16 16 16 16 15 15 15 15 14 14 14 14 14 14 13 13 13 13 13 13 13 13 13 13 12 12 12 11 11 11 11 11 11 11
19 19 18 17 17 17 16 16 16 16 16 15 15 15 15 14 14 14 14 14 14 13 13 13 13 13 13 13 13 12 12 12 12 12 12 11 11 11 11 11 11 11 10
19 18 18 17 17 16 16 16 16 15 15 15 15 15 15 14 14 14 14 13 13 13 13 13 13 13 13 12 12 12 12 12 11 11 11 11 11 11 11 11 11 10 10
18 18 17 17 17 16 16 16 15 15 15 15 14 14 14 14 14 14 13 13 13 13 13 13 12 12 12 12 12 12 12 11 11 11 11 11 11 10 10 10 10 10 10
18 17 17 17 17 16 16 15 15 15 15 14 14 14 14 14 14 13 13 13 13 12 12 12 12 12 12 12 12 11 11 11 11 11 11 10 10 10 10 10 10 10 10
17 17 17 16 16 16 16 15 15 15 14 14 14 14 13 13 13 13 13 13 12 12 12 12 12 12 12 11 11 11 11 11 11 11 10 10 10 10 10 10 10 10 10
17 17 16 16 16 16 15 15 15 14 14 14 13 13 13 13 13 13 12 12 12 12 12 11 11 11 11 11 11 11 11 10 10 10 10 10 10 10 10 10 10 10 10
16 16 16 16 15 15 15 15 14 14 14 14 13 13 13 12 12 12 12 12 11 11 11 11 11 11 11 11 11 10 10 10 10 10 10 10 10 10 9 9 9 9 9
16 16 15 15 15 15 15 14 14 14 14 14 13 13 13 12 12 12 12 11 11 11 11 11 11 11 11 11 10 10 10 10 10 10 10 10 10 10 9 9 9 9 9
16 15 15 15 15 14 14 14 14 14 14 13 13 13 12 12 12 12 11 11 11 11 11 11 11 11 10 10 10 10 10 10 10 10 10 10 10 9 9 9 9 9 9
15 15 14 14 14 14 14 14 14 13 13 13 13 12 12 12 12 12 11 11 11 11 11 11 10 10 10 10 10 10 10 9 9 9 9 9 9 9 9 9 9 9 9
15 15 14 14 14 14 14 14 14 13 13 13 12 12 12 12 11 11 11 11 11 10 10 10 10 10 10 10 10 10 9 9 9 9 9 9 9 9 9 9 9 9 9
14 14 14 14 14 14 14 13 13 13 13 12 12 12 12 11 11 11 11 11 10 10 10 10 10 10 10 10 10 10 9 9 9 9 9 9 9 9 9 9 9 9 8
14 14 14 14 14 14 13 13 13 13 12 12 12 12 12 11 11 11 11 10 10 10 10 10 10 10 10 10 10 9 9 9 9 9 9 8 8 8 8 8 8 8 8
14 14 14 14 14 14 13 13 13 13 12 12 12 12 12 11 11 11 11 10 10 10 10 10 10 10 10 9 9 9 9 9 9 8 8 8 8 8 8 8 8 8 8
14 13 13 13 13 13 13 13 13 12 12 12 12 12 11 11 11 11 10 10 10 10 10 10 10 9 9 9 9 9 9 8 8 8 8 8 8 8 8 8 8 8 8
13 13 13 13 13 13 13 13 13 13 12 12 12 11 11 11 11 11 11 10 10 10 10 9 9 9 9 9 9 8 8 8 8 8 8 8 8 8 8 8 7 7 7
13 13 13 13 13 13 13 13 12 12 12 12 12 11 11 11 11 11 10 10 10 10 9 9 9 9 9 8 8 8 8 8 8 7 7 7 7 7 7 7 7 7 7
13 13 13 13 12 12 12 12 12 12 12 12 11 11 11 11 11 10 10 10 10 9 9 9 9 9 8 8 8 8 8 7 7 7 7 7 7 7 7 7 7 7 7
13 13 13 13 12 12 12 12 12 12 12 12 11 11 11 11 11 10 10 10 10 9 9 9 8 8 8 8 7 7 7 7 7 7 7 6 6 6 6 6 6 6 6
Wind_Speed
5 4 3 4 3 2 2 2 2 2 3 3 3 3 3 3 3 2 3 3 4 4 3 3 3 4 3 3 2 2 2 2 2 1 2 3 4 5 7 8 9 9 9
6 5 4 4 3 3 3 2 2 2 2 2 3 3 3 4 3 4 4 5 5 5 5 5 5 4 4 3 3 2 2 2 3 3 2 3 4 4 5 4 6 7 8
7 7 5 4 4 4 3 3 3 3 3 3 3 3 4 4 4 5 5 5 5 6 6 6 6 5 5 4 4 4 3 3 4 5 4 3 3 3 4 5 6 5 7
8 7 6 5 4 4 4 4 3 3 3 4 4 3 4 5 5 5 5 5 6 7 7 7 7 7 6 5 5 5 4 5 5 5 5 3 3 3 3 4 4 3 4
8 7 6 5 5 5 4 4 4 4 5 4 4 4 5 5 6 6 5 6 6 6 7 7 8 10 11 8 6 5 5 4 4 5 4 4 3 2 2 2 3 3 3
7 7 7 6 5 5 5 5 5 5 5 5 5 6 7 7 9 9 6 6 6 6 6 6 7 9 10 11 11 10 8 6 5 4 4 4 4 3 2 2 2 2 2
7 7 7 6 6 5 5 5 5 5 5 5 6 7 7 8 11 11 9 6 7 7 6 6 7 8 8 6 6 9 10 10 7 5 5 4 3 2 2 2 2 2 2
7 6 6 6 6 5 5 5 5 5 5 5 6 6 7 8 10 10 8 6 7 7 7 7 7 7 7 6 6 8 8 8 7 6 5 4 4 3 2 1 2 3 3
7 7 6 6 6 6 5 6 5 5 5 5 6 6 7 6 8 8 7 4 6 7 8 8 7 6 9 8 6 6 7 6 9 11 9 8 7 6 4 3 2 2 2
7 6 6 6 6 6 6 6 6 5 5 6 6 6 6 6 7 9 7 3 5 6 6 7 10 9 9 9 5 5 5 4 4 5 5 5 6 7 8 4 2 2 2
6 6 6 6 6 6 6 6 6 6 5 6 6 6 6 6 7 9 9 4 3 5 6 6 5 9 9 9 7 4 3 2 1 3 4 4 3 3 4 5 5 3 3
7 6 6 6 6 7 7 6 6 6 6 5 5 6 5 5 6 7 10 9 7 6 6 5 5 6 7 7 5 5 6 4 2 3 3 4 3 3 2 3 5 5 4
8 7 7 6 6 6 6 6 5 4 5 5 5 5 5 4 4 7 8 9 9 6 5 5 4 2 2 1 2 5 5 3 2 3 3 3 2 2 2 2 3 3 3
8 7 7 7 7 6 4 4 4 3 3 4 4 4 5 4 4 3 4 5 6 5 4 3 2 1 1 1 1 1 1 2 2 2 3 2 2 1 1 1 1 1 1
8 7 7 7 7 6 4 3 3 3 2 3 3 3 4 4 3 4 4 3 2 3 2 1 1 1 1 1 2 2 2 2 3 3 2 2 2 1 1 1 1 1 1
8 7 6 6 6 6 6 6 10 8 9 10 8 7 6 7 8 8 7 6 4 3 2 1 1 1 1 1 1 1 2 2 2 2 2 1 1 1 1 2 2 2 2
8 7 6 6 6 6 6 6 6 6 9 10 9 10 9 9 8 7 6 5 3 2 0 0 1 1 1 1 1 1 2 2 1 2 2 2 2 2 1 1 1 1 2
7 6 6 5 6 5 5 5 6 7 6 4 5 7 9 8 7 5 5 3 1 1 1 1 0 0 0 1 1 2 2 2 2 2 2 2 2 2 2 1 1 1 2
6 5 4 4 5 5 5 5 5 6 6 6 6 4 5 6 5 3 3 1 2 2 2 1 0 0 1 1 1 2 2 1 1 1 1 2 2 2 2 2 2 2 2
4 5 5 4 5 5 5 5 5 6 6 6 6 6 6 5 4 4 3 3 3 2 2 1 1 0 1 1 1 1 1 1 0 0 1 1 1 2 2 2 2 2 2
5 6 6 4 5 5 5 5 5 5 6 6 5 7 9 7 6 5 5 4 4 2 2 1 1 1 1 1 1 1 1 1 1 1 1 1 2 2 2 2 2 2 2
5 6 5 5 4 4 4 4 5 5 5 6 6 7 10 6 4 5 5 5 4 2 1 1 1 1 1 1 1 1 1 1 2 2 2 2 1 2 2 2 2 2 3
5 5 5 4 3 4 4 4 4 4 4 5 6 7 6 5 4 4 4 4 3 2 2 2 1 1 3 3 3 3 2 2 2 2 3 3 2 2 2 2 3 3 3
5 6 6 5 4 4 4 4 4 4 4 5 5 5 6 5 3 3 3 3 3 3 3 3 2 3 4 4 3 4 5 4 4 4 5 4 4 3 3 3 3 3 3
5 5 5 5 4 4 4 4 4 4 4 4 4 5 5 5 4 3 3 3 3 3 3 3 3 4 6 7 7 7 7 7 7 6 5 5 4 4 4 4 3 4 4
5 5 5 5 4 4 4 4 4 4 4 4 4 4 4 4 4 4 3 3 3 3 3 4 5 7 8 7 7 7 7 7 7 8 5 4 4 4 4 4 5 4 4
Wind_Direction
141 137 125 125 123 114 90 72 61 39 20 16 15 20 19 14 6 19 39 24 35 34 32 32 24 23 19 19 34 43 57 112 129 93 77 83 78 82 93 92 94 92 85
139 129 123 120 119 113 100 82 70 61 44 33 25 26 30 31 28 37 42 39 39 39 36 34 29 34 35 27 31 43 68 104 127 123 95 82 77 90 101 104 100 92 91
137 131 129 125 118 108 94 83 75 67 53 45 46 45 44 39 42 45 47 52 51 49 45 44 35 36 37 34 35 34 50 76 92 109 99 82 82 85 96 86 84 90 96
135 133 131 127 120 111 101 93 86 82 73 59 53 52 54 51 43 47 58 58 62 63 59 52 44 43 37 31 46 42 55 71 86 99 103 97 84 66 81 87 85 67 73
137 138 139 131 121 113 109 102 90 81 79 68 60 53 51 57 41 38 59 71 67 71 72 70 65 63 59 53 59 51 58 70 84 94 103 99 90 82 73 89 98 97 80
139 141 134 128 125 121 115 104 93 83 73 67 64 61 56 51 29 34 50 69 64 63 65 75 83 65 63 65 65 61 63 72 76 85 94 101 97 89 76 96 104 105 81
137 136 133 133 132 127 122 112 104 95 84 73 74 76 71 47 33 34 43 66 67 59 55 51 60 56 51 51 69 71 62 58 68 87 87 89 95 84 92 91 83 84 88
141 139 138 139 135 125 118 114 108 103 95 87 83 84 82 59 40 36 36 79 76 67 59 55 63 54 40 37 59 67 64 53 58 73 78 76 81 69 62 85 113 108 99
144 143 141 138 134 130 122 117 112 108 103 96 89 85 83 65 38 31 19 93 90 81 73 59 55 54 30 38 59 71 76 72 73 83 88 88 83 71 54 57 50 75 90
141 139 134 134 133 130 124 120 117 115 112 106 96 88 85 76 44 33 19 83 101 102 94 78 58 50 39 42 55 62 61 50 59 81 86 88 90 78 64 56 41 41 68
132 129 129 129 127 124 118 120 123 119 113 108 105 94 84 78 63 44 44 52 64 93 95 83 63 49 46 41 46 57 47 22 65 85 91 83 75 71 62 53 42 51 59
127 127 126 128 131 125 123 125 126 128 127 123 120 115 103 87 69 63 61 58 55 74 86 93 88 63 47 39 42 23 10 10 60 75 81 79 75 69 62 65 66 63 78
128 128 128 126 117 124 133 138 141 149 150 146 147 137 125 115 94 80 74 70 70 77 85 98 108 98 32 37 47 14 7 11 29 61 75 77 74 71 81 81 74 68 58
137 136 136 133 128 126 134 142 148 153 154 149 146 139 135 130 122 112 110 104 102 107 114 127 167 238 271 316 12 11 34 21 13 42 66 74 75 62 53 76 94 163 114
144 143 142 141 140 135 115 81 107 78 91 127 122 126 136 128 119 121 122 114 118 100 118 163 178 169 174 144 109 76 41 29 28 36 46 44 49 59 36 31 26 1 27
152 156 158 157 150 145 130 100 58 75 78 80 83 95 93 108 122 109 95 88 87 99 109 163 113 79 69 81 82 95 81 47 16 14 27 28 6 39 50 34 29 5 5
160 164 165 164 162 166 161 150 131 90 73 72 85 97 110 120 116 109 98 86 76 91 119 215 102 79 39 67 70 65 77 67 18 9 18 17 2 11 44 48 21 1 355
164 166 172 170 167 170 168 163 157 153 142 117 95 109 124 127 126 120 107 95 107 184 225 245 127 137 76 44 55 63 69 65 36 14 17 9 358 358 358 355 7 357 347
169 170 173 162 162 169 165 160 158 154 149 143 134 126 137 136 133 131 132 176 199 213 206 218 188 104 99 84 78 88 94 96 63 345 3 2 346 343 343 340 344 346 326
162 158 163 162 168 166 162 164 162 159 160 157 155 152 153 157 165 170 184 215 221 225 204 175 135 81 84 89 73 63 85 91 55 342 18 350 334 333 333 331 329 326 323
167 162 165 172 177 173 172 169 164 166 165 163 159 158 164 175 178 178 181 200 218 219 191 168 157 171 132 120 112 74 32 47 37 360 359 344 327 326 316 312 320 325 325
167 168 176 184 180 171 167 166 170 170 171 165 153 155 174 189 185 182 185 197 205 197 176 181 177 136 107 102 83 65 47 28 20 355 333 313 302 305 313 321 330 333 331
172 170 173 177 170 159 170 174 168 166 164 161 159 159 174 195 195 192 188 191 183 164 141 134 135 109 94 82 73 58 47 29 1 351 329 319 321 316 311 313 315 313 321
173 172 174 175 174 176 175 169 168 169 171 169 163 164 172 185 196 195 181 159 149 143 134 127 111 97 91 87 80 71 59 42 15 357 343 326 320 320 320 318 313 319 325
170 170 166 166 175 176 169 171 174 177 174 169 168 170 174 179 183 180 162 150 149 145 144 134 126 112 104 88 75 74 67 53 35 15 346 324 323 327 322 320 323 320 323
177 171 164 167 170 170 175 181 180 177 176 173 171 172 175 177 176 170 164 160 156 147 140 126 120 111 108 101 94 87 73 51 26 3 339 311 316 323 328 323 321 318 316
Height
1537 1538 1539 1540 1541 1541 1541 1541 1541 1540 1540 1539 1539 1538 1537 1536 1535 1534 1533 1533 1532 1532 1532 1531 1531 1531 1530 1530 1531 1531 1532 1533 1533 1535 1536 1536 1535 1536 1536 1536 1536 1536 1536
1536 1537 1539 1540 1540 1540 1540 1540 1540 1540 1539 1539 1538 1537 1536 1535 1535 1534 1533 1533 1532 1532 1531 1531 1531 1530 1530 1530 1530 1531 1531 1532 1533 1533 1534 1535 1535 1536 1536 1536 1536 1536 1536
1536 1537 1538 1539 1539 1540 1540 1540 1540 1539 1539 1538 1538 1537 1536 1535 1535 1534 1533 1533 1532 1532 1531 1531 1531 1530 1530 1530 1530 1530 1531 1532 1532 1533 1534 1535 1535 1536 1536 1536 1536 1536 1536
1535 1536 1537 1538 1539 1539 1539 1539 1539 1539 1538 1538 1537 1537 1536 1536 1535 1535 1534 1533 1533 1533 1532 1532 1531 1531 1531 1530 1530 1530 1531 1532 1533 1533 1534 1535 1536 1536 1537 1537 1537 1537 1537
1534 1536 1537 1537 1538 1538 1539 1539 1539 1539 1539 1538 1538 1537 1537 1536 1536 1536 1535 1535 1534 1534 1534 1533 1533 1532 1532 1532 1531 1531 1531 1532 1533 1533 1534 1535 1536 1537 1537 1538 1538 1539 1539
1534 1535 1536 1537 1537 1538 1538 1539 1539 1539 1539 1539 1538 1538 1537 1537 1537 1537 1536 1536 1536 1535 1535 1535 1534 1534 1533 1533 1533 1533 1533 1533 1533 1534 1535 1535 1537 1537 1538 1539 1539 1539 1539
1533 1534 1535 1536 1537 1538 1539 1539 1539 1539 1539 1539 1539 1539 1538 1538 1538 1538 1537 1537 1537 1537 1536 1536 1536 1535 1535 1535 1534 1534 1535 1535 1536 1536 1536 1537 1537 1538 1538 1539 1539 1540 1540
1532 1533 1535 1535 1536 1537 1538 1538 1539 1539 1539 1539 1539 1539 1539 1539 1539 1539 1539 1539 1538 1538 1538 1537 1537 1537 1537 1536 1536 1536 1537 1537 1537 1537 1538 1538 1539 1539 1540 1540 1540 1540 1541
1531 1532 1533 1535 1536 1536 1537 1538 1538 1539 1539 1540 1540 1540 1540 1540 1540 1540 1540 1540 1540 1539 1539 1539 1539 1538 1538 1538 1538 1538 1538 1539 1539 1539 1539 1540 1540 1540 1541 1541 1541 1541 1541
1529 1531 1532 1534 1535 1535 1536 1537 1538 1538 1539 1540 1540 1541 1541 1541 1541 1541 1541 1541 1541 1541 1540 1540 1540 1540 1540 1540 1540 1540 1540 1540 1541 1541 1541 1541 1541 1541 1542 1541 1541 1541 1541
1528 1530 1531 1533 1534 1535 1536 1537 1538 1539 1539 1540 1540 1541 1541 1541 1541 1542 1542 1542 1542 1542 1541 1541 1542 1542 1542 1542 1542 1542 1542 1542 1542 1542 1542 1542 1542 1542 1542 1542 1542 1542 1541
1527 1529 1530 1532 1533 1534 1535 1536 1538 1538 1539 1540 1540 1541 1541 1542 1542 1542 1542 1542 1542 1542 1542 1543 1543 1543 1543 1543 1543 1543 1543 1544 1544 1544 1544 1544 1544 1543 1543 1543 1543 1542 1542
1525 1527 1529 1531 1532 1533 1535 1536 1537 1538 1539 1539 1540 1541 1541 1542 1542 1543 1543 1543 1543 1543 1544 1544 1544 1544 1544 1545 1545 1545 1545 1545 1545 1545 1545 1545 1545 1544 1544 1543 1543 1543 1542
1523 1525 1527 1529 1531 1532 1534 1535 1537 1538 1539 1539 1540 1540 1541 1542 1542 1542 1543 1543 1544 1544 1544 1545 1545 1545 1546 1546 1546 1546 1546 1546 1546 1546 1546 1546 1545 1545 1544 1544 1543 1543 1542
1522 1524 1526 1528 1530 1531 1533 1534 1536 1537 1538 1539 1539 1540 1540 1541 1542 1543 1543 1543 1544 1545 1545 1545 1546 1546 1547 1547 1547 1547 1547 1547 1547 1547 1546 1546 1546 1545 1545 1545 1544 1543 1543
1520 1522 1524 1527 1529 1530 1531 1533 1534 1536 1537 1538 1539 1540 1540 1541 1542 1543 1543 1544 1545 1545 1546 1546 1547 1547 1547 1548 1548 1547 1547 1547 1547 1547 1547 1547 1546 1546 1545 1545 1544 1543 1543
1519 1521 1524 1526 1527 1529 1530 1531 1532 1534 1536 1537 1538 1539 1540 1541 1542 1542 1543 1544 1545 1545 1546 1546 1547 1547 1548 1548 1548 1548 1547 1547 1547 1547 1547 1547 1546 1546 1545 1544 1544 1543 1542
1518 1520 1522 1524 1526 1528 1529 1530 1531 1532 1533 1535 1536 1538 1539 1540 1541 1542 1542 1543 1544 1545 1546 1546 1547 1547 1548 1547 1547 1547 1547 1547 1547 1547 1546 1546 1546 1545 1545 1544 1543 1543 1542
1517 1519 1520 1522 1524 1526 1528 1529 1530 1531 1532 1533 1534 1536 1537 1538 1540 1541 1541 1542 1543 1544 1545 1546 1546 1547 1547 1547 1547 1546 1546 1546 1546 1546 1545 1545 1545 1545 1544 1544 1543 1542 1541
1515 1517 1518 1520 1522 1524 1526 1527 1529 1530 1531 1532 1533 1534 1535 1537 1538 1539 1540 1542 1543 1543 1544 1545 1545 1546 1546 1545 1545 1545 1545 1545 1545 1545 1544 1544 1544 1543 1543 1542 1541 1541 1540
1514 1515 1517 1519 1521 1523 1524 1526 1527 1528 1529 1530 1531 1532 1534 1535 1536 1537 1539 1540 1541 1542 1543 1543 1544 1544 1544 1544 1544 1544 1544 1544 1543 1543 1543 1542 1542 1542 1541 1541 1540 1539 1538
1512 1514 1515 1517 1519 1521 1522 1524 1525 1527 1528 1528 1530 1531 1532 1534 1535 1536 1537 1538 1540 1540 1541 1542 1542 1542 1542 1542 1542 1542 1542 1541 1541 1541 1541 1540 1540 1540 1539 1539 1538 1537 1536
1510 1512 1514 1516 1517 1519 1521 1523 1524 1525 1526 1527 1528 1529 1530 1532 1533 1535 1536 1537 1538 1538 1539 1539 1540 1540 1540 1540 1540 1540 1540 1539 1539 1538 1538 1538 1538 1538 1537 1537 1536 1535 1534
1509 1511 1513 1514 1516 1518 1519 1521 1522 1523 1524 1525 1527 1527 1528 1530 1531 1533 1534 1535 1535 1536 1537 1537 1538 1538 1538 1538 1538 1537 1537 1537 1536 1536 1536 1535 1535 1535 1535 1534 1534 1533 1532
1508 1510 1511 1512 1514 1516 1517 1519 1520 1521 1523 1524 1525 1526 1527 1528 1529 1530 1531 1532 1533 1534 1534 1535 1535 1536 1535 1535 1535 1535 1534 1534 1534 1534 1533 1533 1533 1532 1532 1532 1531 1530 1529
1506 1508 1509 1511 1513 1514 1516 1517 1519 1520 1521 1522 1523 1524 1525 1526 1527 1528 1529 1530 1530 1531 1532 1532 1533 1533 1533 1532 1532 1532 1532 1532 1532 1532 1531 1531 1530 1530 1530 1529 1528 1528 1526